#timestamp,LO_Frequency,Hit,StdDev 
1617897615.9,286047001.2,N
1617897635.7,286046999.9,N
1617897655.5,286047003.9,Y
1617897675.4,286047003.4,P
1617897695.2,286047003.5,N
1617897715.1,286047000.5,N
1617897716.0,286047000.5,N
1617897735.8,286047000.4,N
1617897755.6,286047004.4,N
1617897775.5,286047004.1,N
1617897795.3,286047002.4,N
1617897815.1,286046999.7,N
1617897835.9,286046998.2,N
1617897855.7,286047001.7,N
1617897875.6,286047003.0,N
1617897895.4,286047003.3,N
1617897915.2,286047002.9,N
1617897935.1,286047004.0,N
1617897936.0,286047004.0,N
1617897955.8,286047002.1,N
1617897975.6,286046999.6,N
1617897995.5,286046999.9,N
1617898015.3,286047002.5,N
1617898035.2,286047002.4,N
1617898055.9,286046998.1,N
1617898075.7,286046998.7,N
1617898095.6,286046999.6,N
1617898115.4,286046999.6,N
1617898135.2,286046999.3,N
1617898155.1,286046998.2,N
1617898156.0,286046998.2,N
1617898175.8,286046996.8,N
1617898195.7,286046996.7,N
1617898215.5,286047000.8,N
1617898235.3,286047004.2,N
1617898255.2,286047017.6,Y
1617898275.0,286047018.7,P
1617898275.9,286047018.7,N
1617898295.8,286047016.5,N
1617898315.6,286047013.3,N
1617898335.4,286047010.2,N
1617898355.3,286047008.3,N
1617898375.1,286047009.1,N
1617898395.8,286047006.3,N
1617898415.7,286047004.8,N
1617898435.5,286047005.4,N
1617898455.4,286047003.2,N
1617898475.2,286047005.8,N
1617898495.0,286047004.2,N
1617898495.9,286047004.2,N
1617898515.8,286047004.2,N
1617898535.6,286047002.1,N
1617898555.5,286046998.3,N
1617898575.3,286046996.5,N
1617898595.1,286046997.4,N
1617898615.9,286046995.8,N
1617898635.7,286046996.9,N
1617898655.5,286046997.1,N
1617898675.4,286046996.7,N
1617898695.2,286046999.6,N
1617898715.1,286046999.1,N
1617898716.0,286046999.1,N
1617898735.8,286046997.5,N
1617898755.6,286046996.1,N
1617898775.5,286046995.7,N
1617898795.3,286046997.2,N
1617898815.2,286046998.5,N
1617898835.9,286046997.1,N
1617898855.7,286046999.4,N
1617898875.6,286047001.0,N
1617898895.4,286046998.1,N
1617898915.2,286046998.1,N
1617898935.1,286046998.1,N
1617898936.0,286046998.1,N
1617898955.8,286047000.0,N
1617898975.7,286047000.3,N
1617898995.5,286047000.9,N
1617899015.3,286047000.8,N
1617899035.2,286047000.5,N
1617899055.0,286046998.3,N
1617899055.9,286046998.3,N
1617899075.8,286047004.0,N
1617899095.6,286047002.9,N
1617899115.4,286047003.5,N
1617899135.3,286047001.6,N
1617899155.1,286047003.1,N
1617899175.9,286047002.0,N
1617899195.7,286047000.2,N
1617899215.5,286046998.6,N
1617899235.4,286047001.1,N
1617899255.2,286047001.1,N
1617899275.0,286046997.1,N
1617899275.9,286046997.1,N
1617899295.8,286046998.4,N
1617899315.6,286046998.3,N
1617899335.5,286046998.6,N
1617899355.3,286047002.1,N
1617899375.1,286047005.5,N
1617899395.9,286047003.1,N
1617899415.7,286047000.2,N
1617899435.6,286046998.1,N
1617899455.4,286046997.3,N
1617899475.2,286046997.8,N
1617899495.1,286047000.7,N
1617899496.0,286047000.7,N
1617899515.8,286047002.1,N
1617899535.6,286047000.5,N
1617899555.5,286047002.2,N
1617899575.3,286047001.6,N
1617899595.2,286047000.9,N
1617899615.9,286047000.8,N
1617899635.7,286046998.5,N
1617899655.6,286046999.8,N
1617899675.4,286047000.2,N
1617899695.3,286047001.1,N
1617899715.1,286046999.7,N
1617899716.0,286046999.7,N
1617899735.8,286047002.7,N
1617899755.7,286047001.7,N
1617899775.5,286047002.2,N
1617899795.3,286047001.8,N
1617899815.2,286047003.7,N
1617899835.0,286047007.4,Y
1617899835.9,286047007.4,P
1617899855.8,286047005.9,N
1617899875.6,286047005.6,N
1617899895.4,286047003.2,N
1617899915.3,286047005.5,N
1617899935.1,286047003.5,N
1617899955.8,286047004.0,N
1617899975.7,286047002.7,N
1617899995.5,286047002.8,N
1617900015.4,286047002.7,N
1617900035.2,286047000.2,N
1617900055.0,286047000.3,N
1617900055.9,286047000.3,N
1617900075.8,286047000.0,N
1617900095.6,286047001.1,N
1617900115.4,286046998.9,N
1617900135.3,286046998.3,N
1617900155.1,286046998.9,N
1617900175.9,286046999.1,N
1617900195.7,286046997.7,N
1617900215.5,286046997.8,N
1617900235.4,286047000.7,N
1617900255.2,286047002.6,N
1617900275.1,286047000.3,N
1617900276.0,286047000.3,N
1617900295.8,286047000.2,N
1617900315.6,286047002.7,N
1617900335.5,286047000.6,N
1617900355.3,286047000.5,N
1617900375.2,286046999.9,N
1617900395.9,286047001.8,N
1617900415.7,286047002.6,N
1617900435.6,286047002.6,N
1617900455.4,286046999.8,N
1617900475.2,286047003.1,N
1617900495.1,286047003.6,N
1617900496.0,286047003.6,N
1617900515.8,286047001.7,N
1617900535.7,286047005.3,Y
1617900555.5,286047003.7,P
1617900575.4,286047003.3,N
1617900595.2,286047001.8,N
1617900615.0,286047003.6,Y
1617900616.0,286047003.6,P
1617900635.8,286047000.7,N
1617900655.6,286046998.7,N
1617900675.5,286046998.6,N
1617900695.3,286046999.6,N
1617900715.2,286046996.6,N
1617900735.9,286046998.0,N
1617900755.7,286046995.6,N
1617900775.6,286046995.5,N
1617900795.4,286046997.4,N
1617900815.3,286046998.5,N
1617900835.1,286046999.0,N
1617900836.0,286046999.0,N
1617900855.8,286046998.4,N
1617900875.7,286046997.3,N
1617900895.5,286046996.5,N
1617900915.3,286046998.9,N
1617900935.2,286046997.0,N
1617900955.0,286046999.6,N
1617900955.9,286046999.6,N
1617900975.8,286046998.0,N
1617900995.6,286046996.1,N
1617901015.4,286046996.1,N
1617901035.3,286046997.8,N
1617901055.1,286046997.8,N
1617901075.9,286046997.2,N
1617901095.7,286046996.8,N
1617901115.5,286046997.0,N
1617901135.4,286046995.2,N
1617901155.2,286046995.0,N
1617901175.0,286046996.3,N
1617901175.9,286046996.3,N
1617901195.8,286046994.5,Y
